Greeley, CO

9:49 PM MDT on April 19, 2018 (GMT -0600)
Greeley-Weld County

Weather History for KGXY - May, 2014

Change the Weather History Date:

Saturday, May 17, 2014

  Actual Average Record
Temperature  
Mean Temperature 56 °F -  
Max Temperature 69 °F - 89 °F (2003)
Min Temperature 44 °F - 28 °F (1968)
Degree Days  
Heating Degree Days 8    
Month to date heating degree days  
Cooling Degree Days 0    
Month to date cooling degree days  
Growing Degree Days 6 (Base 50)    
Moisture  
Dew Point 42 °F    
Average Humidity 65    
Maximum Humidity 82    
Minimum Humidity 43    
Precipitation  
Precipitation 0.01 in - 2.95 in (2000)
Sea Level Pressure  
Sea Level Pressure 30.04 in    
Wind  
Wind Speed 7 mph (South)    
Max Wind Speed 20 mph    
Max Gust Speed 25 mph    
Visibility 10 miles    
Events      
T = Trace of Precipitation, MM = Missing Value Source: NWS Daily Summary

Daily Weather History Graph

Daily Weather History Graph

Search for Another Location

Airport or City:

Astronomy

May. 17, 2014 Rise Set
Actual Time 5:40 AM MDT 8:10 PM MDT
Civil Twilight 5:09 AM MDT 8:41 PM MDT
Nautical Twilight 4:30 AM MDT 9:20 PM MDT
Astronomical Twilight 3:47 AM MDT 10:03 PM MDT
Moon 11:12 PM MDT (5/17) 8:25 AM MDT (5/17)
Length of Visible Light 15h 32m
Length of Day
14h 29m
Waning Gibbous, 89% of the Moon is Illuminated
May 17
Waning Gibbous
May 21
Last Quarter
May 28
New
Jun 5
First Quarter
Jun 12
Full

Hourly Weather History & Observations

Time (MDT) Temp. Windchill Dew Point Humidity Pressure Visibility Wind Dir Wind Speed Gust Speed Precip Events Conditions
12:15 AM 50.0 °F - 39.2 °F 66% 30.15 in 10.0 mi SSW 3.5 mph - N/A   Overcast
12:35 AM 48.2 °F - 39.2 °F 71% 30.14 in 10.0 mi South 5.8 mph - N/A   Overcast
12:55 AM 48.2 °F - 39.2 °F 71% 30.14 in 10.0 mi South 3.5 mph - N/A   Overcast
1:15 AM 48.2 °F - 39.2 °F 71% 30.13 in 10.0 mi South 5.8 mph - N/A   Overcast
1:35 AM 48.2 °F - 39.2 °F 71% 30.12 in 10.0 mi South 6.9 mph - N/A   Overcast
1:55 AM 46.4 °F 43.5 °F 39.2 °F 76% 30.12 in 10.0 mi South 5.8 mph - N/A   Scattered Clouds
2:15 AM 46.4 °F 42.9 °F 39.2 °F 76% 30.12 in 10.0 mi South 6.9 mph - N/A   Scattered Clouds
2:35 AM 46.4 °F 40.7 °F 39.2 °F 76% 30.08 in 10.0 mi SW 12.7 mph - N/A   Scattered Clouds
2:55 AM 46.4 °F 42.9 °F 39.2 °F 76% 30.09 in 10.0 mi South 6.9 mph - N/A   Scattered Clouds
3:15 AM 46.4 °F 43.5 °F 37.4 °F 71% 30.08 in 10.0 mi South 5.8 mph - N/A   Mostly Cloudy
3:35 AM 46.4 °F 42.9 °F 37.4 °F 71% 30.07 in 10.0 mi South 6.9 mph - N/A   Overcast
3:55 AM 46.4 °F 43.5 °F 37.4 °F 71% 30.08 in 10.0 mi SE 5.8 mph - N/A   Overcast
4:15 AM 46.4 °F 44.3 °F 37.4 °F 71% 30.08 in 10.0 mi SSE 4.6 mph - N/A   Overcast
4:35 AM 44.6 °F 42.2 °F 37.4 °F 76% 30.07 in 10.0 mi SSE 4.6 mph - N/A   Scattered Clouds
4:55 AM 44.6 °F 40.7 °F 37.4 °F 76% 30.06 in 10.0 mi South 6.9 mph - N/A   Partly Cloudy
5:15 AM 44.6 °F 41.4 °F 37.4 °F 76% 30.05 in 10.0 mi SSW 5.8 mph - N/A   Mostly Cloudy
5:35 AM 44.6 °F 40.7 °F 37.4 °F 76% 30.04 in 10.0 mi SSW 6.9 mph - N/A   Mostly Cloudy
5:55 AM 44.6 °F 42.2 °F 37.4 °F 76% 30.06 in 10.0 mi SE 4.6 mph - N/A   Partly Cloudy
6:15 AM 44.6 °F 43.1 °F 37.4 °F 76% 30.06 in 10.0 mi SE 3.5 mph - N/A   Partly Cloudy
6:35 AM 44.6 °F 41.4 °F 37.4 °F 76% 30.06 in 10.0 mi SE 5.8 mph - N/A   Partly Cloudy
6:55 AM 44.6 °F 41.4 °F 37.4 °F 76% 30.07 in 8.0 mi SSE 5.8 mph - N/A   Mostly Cloudy
7:15 AM 46.4 °F 43.5 °F 39.2 °F 76% 30.06 in 10.0 mi SSE 5.8 mph - N/A   Mostly Cloudy
7:35 AM 46.4 °F 42.4 °F 39.2 °F 76% 30.06 in 8.0 mi SSE 8.1 mph - N/A   Partly Cloudy
7:55 AM 46.4 °F 42.9 °F 39.2 °F 76% 30.06 in 10.0 mi SSE 6.9 mph - N/A   Clear
8:15 AM 48.2 °F - 41.0 °F 76% 30.06 in 10.0 mi South 6.9 mph - N/A   Partly Cloudy
8:35 AM 48.2 °F - 41.0 °F 76% 30.06 in 10.0 mi South 6.9 mph - N/A   Scattered Clouds
8:55 AM 51.8 °F - 42.8 °F 71% 30.05 in 10.0 mi SSE 6.9 mph - N/A   Mostly Cloudy
9:15 AM 51.8 °F - 42.8 °F 71% 30.05 in 10.0 mi South 6.9 mph - N/A   Scattered Clouds
9:35 AM 53.6 °F - 42.8 °F 67% 30.06 in 10.0 mi South 4.6 mph - N/A   Clear
9:55 AM 53.6 °F - 42.8 °F 67% 30.06 in 10.0 mi ESE 3.5 mph - N/A   Mostly Cloudy
10:15 AM 55.4 °F - 42.8 °F 63% 30.05 in 10.0 mi South 5.8 mph - N/A   Overcast
10:35 AM 55.4 °F - 42.8 °F 63% 30.06 in 10.0 mi SSE 3.5 mph - N/A   Mostly Cloudy
10:55 AM 57.2 °F - 42.8 °F 59% 30.05 in 10.0 mi SSE 4.6 mph - N/A   Mostly Cloudy
11:15 AM 57.2 °F - 42.8 °F 59% 30.05 in 10.0 mi South 4.6 mph - N/A   Mostly Cloudy
11:35 AM 57.2 °F - 42.8 °F 59% 30.05 in 10.0 mi South 4.6 mph - N/A   Scattered Clouds
11:55 AM 60.8 °F - 44.6 °F 55% 30.04 in 10.0 mi SSW 6.9 mph - N/A   Partly Cloudy
12:15 PM 60.8 °F - 44.6 °F 55% 30.03 in 10.0 mi South 4.6 mph - N/A   Clear
12:35 PM 60.8 °F - 44.6 °F 55% 30.03 in 10.0 mi SSE 6.9 mph - N/A   Clear
12:55 PM 64.4 °F - 44.6 °F 49% 30.03 in 10.0 mi SSW 6.9 mph - N/A   Clear
1:15 PM 62.6 °F - 46.4 °F 55% 30.02 in 10.0 mi SSE 4.6 mph - N/A   Scattered Clouds
1:35 PM 64.4 °F - 46.4 °F 52% 30.01 in 10.0 mi SSE 9.2 mph - N/A   Partly Cloudy
1:55 PM 64.4 °F - 46.4 °F 52% 30.02 in 10.0 mi SSW 5.8 mph - N/A   Scattered Clouds
2:15 PM 66.2 °F - 46.4 °F 49% 30.00 in 10.0 mi SSE 6.9 mph - N/A   Partly Cloudy
2:35 PM 64.4 °F - 44.6 °F 49% 30.00 in 10.0 mi SSE 4.6 mph - N/A   Partly Cloudy
2:55 PM 64.4 °F - 44.6 °F 49% 29.99 in 10.0 mi South 6.9 mph - N/A   Partly Cloudy
3:15 PM 66.2 °F - 46.4 °F 49% 29.99 in 10.0 mi South 9.2 mph - N/A   Clear
3:35 PM 68.0 °F - 46.4 °F 46% 29.99 in 10.0 mi SSW 9.2 mph - N/A   Partly Cloudy
3:55 PM 66.2 °F - 44.6 °F 46% 30.00 in 10.0 mi South 10.4 mph - N/A   Mostly Cloudy
4:15 PM 66.2 °F - 44.6 °F 46% 29.99 in 10.0 mi SSW 9.2 mph - N/A   Scattered Clouds
4:35 PM 69.8 °F - 46.4 °F 43% 29.99 in 10.0 mi South 9.2 mph - N/A   Partly Cloudy
4:55 PM 68.0 °F - 46.4 °F 46% 29.98 in 10.0 mi SSE 11.5 mph - N/A   Mostly Cloudy
5:15 PM 64.4 °F - 44.6 °F 49% 29.98 in 10.0 mi South 13.8 mph 20.7 mph N/A   Overcast
5:35 PM 64.4 °F - 46.4 °F 52% 29.99 in 10.0 mi South 11.5 mph 18.4 mph N/A   Scattered Clouds
5:55 PM 62.6 °F - 46.4 °F 55% 29.99 in 10.0 mi South 18.4 mph 23.0 mph N/A   Scattered Clouds
6:15 PM 62.6 °F - 46.4 °F 55% 29.99 in 10.0 mi South 17.3 mph 25.3 mph N/A   Scattered Clouds
6:35 PM 60.8 °F - 46.4 °F 59% 29.99 in 10.0 mi SSW 16.1 mph 23.0 mph N/A   Scattered Clouds
6:55 PM 60.8 °F - 44.6 °F 55% 30.00 in 10.0 mi SSW 19.6 mph - N/A   Mostly Cloudy
7:15 PM 59.0 °F - 44.6 °F 59% 30.00 in 10.0 mi SSW 16.1 mph 23.0 mph N/A   Mostly Cloudy
7:35 PM 59.0 °F - 44.6 °F 59% 30.02 in 10.0 mi SSW 15.0 mph 20.7 mph N/A   Overcast
7:55 PM 59.0 °F - 42.8 °F 55% 30.01 in 10.0 mi SSW 19.6 mph - N/A   Overcast
8:15 PM 55.4 °F - 44.6 °F 67% 30.02 in 10.0 mi South 15.0 mph - 0.01 in   Overcast
8:35 PM 53.6 °F - 44.6 °F 72% 30.01 in 10.0 mi SSW 10.4 mph - 0.01 in   Scattered Clouds
8:55 PM 53.6 °F - 44.6 °F 72% 30.02 in 10.0 mi SW 9.2 mph - 0.01 in   Clear
9:15 PM 53.6 °F - 44.6 °F 72% 30.03 in 10.0 mi SW 9.2 mph - N/A   Clear
9:35 PM 53.6 °F - 44.6 °F 72% 30.03 in 10.0 mi SW 11.5 mph - N/A   Clear
9:55 PM 53.6 °F - 44.6 °F 72% 30.04 in 10.0 mi SW 9.2 mph - N/A   Clear
10:15 PM 51.8 °F - 44.6 °F 76% 30.05 in 10.0 mi SW 12.7 mph - N/A   Clear
10:35 PM 51.8 °F - 42.8 °F 71% 30.04 in 10.0 mi SW 8.1 mph - N/A   Clear
10:55 PM 51.8 °F - 42.8 °F 71% 30.03 in 10.0 mi SW 8.1 mph - N/A   Clear
11:15 PM 51.8 °F - 42.8 °F 71% 30.04 in 10.0 mi Calm Calm - N/A   Clear
11:35 PM 50.0 °F - 42.8 °F 76% 30.03 in 10.0 mi Calm Calm - N/A   Clear
11:55 PM 48.2 °F - 42.8 °F 82% 30.02 in 10.0 mi SSW 3.5 mph - N/A   Clear